Flag for France Weather past 2 weeks in Rouen, France

Now
84 °F

Sunny.


Feels Like: 84 °F
Forecast: 57 / 75 °F
Wind: 12 mph from Southwest

Location: Rouen Airport

Current Time: Aug 3, 2015 at 4:05:57 PM

Latest Report: Aug 3, 2015 at 3:30 PM


Visibility: 10 mi

Pressure: 29.92 "Hg

Humidity: 43%

Dew point: 59 °F

Location of RouenLocation

Historic Weather in Rouen — Graph

°F

Rouen temperature yesterday

Maximum temperature yesterday: 84 °F (at 4:30 PM)
Minimum temperature yesterday: 46 °F (at 4:00 AM)
Average temperature yesterday: 67 °F

Past Weeks' High & Low Weather Summary

 TemperatureHumidityPressure
High84 °F (Aug 2, 4:30 PM)100% (Jul 20, 2:30 AM)30.15 "Hg (Jul 20, 2:30 AM)
Low45 °F (Jul 29, 6:00 AM)23% (Aug 2, 5:00 PM)29.59 "Hg (Jul 24, 9:00 PM)
Average63 °F71%29.94 "Hg
* Reported Jul 19 3:00 PM — Aug 3 3:00 PM, Rouen, Weather by CustomWeather, © 2015

Note: Actual official high and low records may vary slightly from our data, if they occured in-between our weather recording intervals... More about our weather records

Advertising

Rouen weather history for previous 24 hours

 ConditionsComfort  
Time TempWeatherWind HumidityBarometerVisibility
3:00 PM
Mon, Aug 3
84 °FPassing clouds.13 mph45%29.92 "HgN/A
2:30 PM82 °FPassing clouds.9 mph48%29.95 "HgN/A
2:00 PM81 °FPassing clouds.9 mph51%29.95 "HgN/A
1:30 PM79 °FPassing clouds.9 mph54%29.95 "HgN/A
1:00 PM79 °FPassing clouds.8 mph54%29.98 "HgN/A
12:30 PM77 °FPassing clouds.3 mph61%29.98 "HgN/A
11:30 AM73 °FPassing clouds.7 mph65%29.98 "HgN/A
11:00 AM72 °FPassing clouds.8 mph65%29.98 "HgN/A
10:30 AM72 °FPassing clouds.8 mph61%29.98 "HgN/A
10:00 AM70 °FPassing clouds.7 mph60%29.98 "HgN/A
9:30 AM68 °FPassing clouds.7 mph60%29.98 "HgN/A
9:00 AM68 °FPassing clouds.9 mph60%29.95 "HgN/A
8:30 AM66 °FSunny.7 mph60%29.95 "Hg10 mi
8:00 AM66 °FSunny.3 mph64%29.95 "Hg10 mi
7:30 AM63 °FSunny.3 mph68%29.92 "Hg10 mi
7:00 AM57 °FClear.8 mph77%29.92 "Hg10 mi
6:30 AM55 °FClear.7 mph77%29.92 "Hg10 mi
6:00 AM57 °FClear.6 mph72%29.92 "Hg10 mi
5:30 AM59 °FClear.6 mph68%29.89 "Hg10 mi
5:00 AM61 °FClear.6 mph68%29.89 "Hg10 mi
4:30 AM64 °FClear.6 mph60%29.89 "Hg10 mi
4:00 AM64 °FClear.8 mph60%29.89 "Hg10 mi
3:30 AM63 °FClear.7 mph64%29.89 "Hg10 mi
3:00 AM64 °FClear.7 mph56%29.89 "Hg10 mi
2:30 AM64 °FClear.6 mph56%29.92 "Hg10 mi
2:00 AM66 °FClear.8 mph56%29.92 "Hg10 mi
1:30 AM66 °FClear.8 mph56%29.92 "Hg10 mi
1:00 AM66 °FClear.9 mph56%29.92 "Hg10 mi
12:30 AM66 °FClear.9 mph56%29.92 "Hg10 mi
12:00 AM68 °FClear.8 mph53%29.92 "Hg10 mi
11:30 PM
Sun, Aug 2
68 °FClear.7 mph49%29.92 "Hg10 mi
11:00 PM68 °FClear.6 mph49%29.92 "Hg10 mi
10:30 PM70 °FSunny.6 mph46%29.92 "Hg10 mi
10:00 PM72 °FSunny.7 mph44%29.92 "Hg10 mi
9:30 PM75 °FSunny.8 mph39%29.92 "Hg10 mi
9:00 PM77 °FSunny.8 mph36%29.92 "Hg10 mi
8:30 PM77 °FSunny.6 mph36%29.92 "Hg10 mi
8:00 PM79 °FSunny.9 mph32%29.95 "Hg10 mi
7:30 PM82 °FSunny.10 mph28%29.95 "Hg10 mi
7:00 PM84 °FPassing clouds.12 mph25%29.95 "HgN/A
6:30 PM82 °FSunny.13 mph26%29.98 "Hg10 mi
6:00 PM84 °FSunny.12 mph25%29.98 "Hg10 mi
5:30 PM82 °FPassing clouds.13 mph26%29.98 "HgN/A
5:00 PM84 °FPassing clouds.14 mph23%29.98 "HgN/A
4:30 PM84 °FPassing clouds.7 mph27%30.01 "HgN/A
4:00 PM82 °FPassing clouds.10 mph28%30.01 "HgN/A
Weather by CustomWeather, © 2015

See weather overviewHow to use our weather pages